COSMOS 2251 DEB, 40236

Orbit data source: Space-Track

COSMOS 2251 DEB, 40236 is space debris in LEO originally from a launch on Wed, 16 Jun 1993 UTC launched from the Plesetsk Missile And Space Complex (PKMTR). The debris from Iridium 33, an American commercial communications satellite, has been tracked extensively since its accidental collision with the defunct Russian satellite Cosmos 2251 in 2009. This event, occurring at high speed in low Earth orbit (LEO), generated thousands of pieces of space debris, significantly increasing the risk of further collisions. The Iridium 33 debris cloud has impacted space traffic management and orbital debris mitigation strategies, making it a subject of ongoing study in space situational awareness.

Loading next visibility...
Identifier
40236, 1993-036BVR
Orbit
LEO
Country
Flag of CISCIS
Related business
Manufacturer
Unknown
Mission
Spacecraft
Bus & Motor
Unknown
Mass
Unknown
Launch date (UTC)
1993-06-16 (33 years ago)
Launch vehicle
Unknown
Launch site
Plesetsk Missile And Space Complex (PKMTR)
Object type
Payload
Rocket body
Debris
Shape & HBR
Unknown shape, 0.1 m
Radar Cross Section
Small (<0.1 m²)

Expand to show TLE details & history
Last TLE update: 3 days ago

TLE from 3 days ago
0 COSMOS 2251 DEB
1 40236U 93036BVR 26260.78479968  .00000590  00000-0  65739-3 0  9997
2 40236  73.5370  63.7382 0534260 278.7187  75.3769 13.25162257573209
Epoch: 2026-09-17T18:50Z
TLE epoch observation values (Epoch: 2026-09-17T18:50:06.692Z)
Latitude
-0.00007°
Longitude
144.49323°
Altitude
1,086.307 km
Speed
7.348 km/s
True Right ascension
04h 14m 57s
True Declination
0° 00' 00"
Sunlit
Object was in daylight at epoch
Visualization orbit readout
Latitude
Unknown
Longitude
Unknown
Altitude
Unknown
Speed
Unknown
Apparent Right ascension
Unknown
Apparent Declination
Unknown
Sunlit
N/A
Visualization observer readout
Local Sidereal Time
04:33:09
Azimuth
Unknown
Elevation
Unknown
Doppler factor
Unknown
Orbital elements
Apogee altitude
1,565.73 km
Perigee altitude
759.961 km
Semi-major axis
7,540.983 km
Eccentricity
0.05343
Inclination
73.537°
RAAN
63.7382°
Arg. of periapsis
278.7187°
True anomaly
81.39119°
Mean anomaly
75.3769°
Eccentric anomaly
78.3752°
Mean motion
3.31437 °/min
Orbital period
108.62 mins
BSTAR
0.00065739
Loading maneuver chart data...
Computing Atmospheric mass density...

Documentation

Showing up to 5 results
|